El Macero, CA

1:35 PM PDT on August 30, 2016 (GMT -0700)
University AP, Davis, CA

Weather History for KEDU - April, 2014

Change the Weather History Date:

Friday, April 4, 2014

  Actual Average (KSAC) Record (KSAC)
Temperature  
Mean Temperature 52 °F -  
Max Temperature 57 °F 68 °F 85 °F (1960)
Min Temperature 46 °F 45 °F 38 °F (2012)
Degree Days  
Heating Degree Days 14    
Cooling Degree Days 0    
Growing Degree Days 2 (Base 50)    
Moisture  
Dew Point 48 °F    
Average Humidity 88    
Maximum Humidity 100    
Minimum Humidity 63    
Precipitation  
Precipitation 0.32 in 0.04 in 1.14 in (2006)
Month to date precipitation 0.20  
Year to date precipitation 10.06  
Sea Level Pressure  
Sea Level Pressure 30.01 in    
Wind  
Wind Speed 3 mph (South)    
Max Wind Speed 10 mph    
Max Gust Speed -    
Visibility 10 miles    
Events      
T = Trace of Precipitation, MM = Missing Value Source: NWS Daily Summary

Daily Weather History Graph

Daily Weather History Graph

Search for Another Location

Airport or City:

Trip Planner

Search our weather history database for the weather conditions in past years. The results will help you decide how hot, cold, wet, or windy it might be!

Date:

Astronomy

Apr. 04, 2014 Rise Set
Actual Time 6:47 AM PDT 7:33 PM PDT
Civil Twilight 6:20 AM PDT 8:00 PM PDT
Nautical Twilight 5:48 AM PDT 8:32 PM PDT
Astronomical Twilight 5:16 AM PDT 9:05 PM PDT
Moon 10:11 AM PDT (4/4) No Moon Set
Length of Visible Light 13h 39m
Length of Day
12h 46m
Waxing Crescent, 26% of the Moon is Illuminated
Apr 4
Waxing Crescent
Apr 7
First Quarter
Apr 15
Full
Apr 22
Last Quarter
Apr 28
New

Hourly Weather History & Observations

Time (PDT) Temp. Dew Point Humidity Pressure Visibility Wind Dir Wind Speed Gust Speed Precip Events Conditions
12:15 AM 48.2 °F 46.4 °F 93% 30.03 in 10.0 mi Calm Calm - N/A   Partly Cloudy
12:35 AM 48.2 °F 44.6 °F 87% 30.03 in 10.0 mi Calm Calm - N/A   Partly Cloudy
12:55 AM 48.2 °F 42.8 °F 82% 30.03 in 10.0 mi SSW 3.5 mph - N/A   Mostly Cloudy
1:15 AM 48.2 °F 42.8 °F 82% 30.02 in 10.0 mi Calm Calm - N/A   Mostly Cloudy
1:35 AM 50.0 °F 44.6 °F 82% 30.02 in 10.0 mi South 3.5 mph - N/A   Mostly Cloudy
1:55 AM 48.2 °F 44.6 °F 87% 30.02 in 10.0 mi SSE 3.5 mph - N/A   Mostly Cloudy
2:15 AM 48.2 °F 44.6 °F 87% 30.02 in 10.0 mi Calm Calm - N/A   Scattered Clouds
2:35 AM 48.2 °F 46.4 °F 93% 30.02 in 10.0 mi ESE 4.6 mph - N/A   Mostly Cloudy
2:55 AM 48.2 °F 46.4 °F 93% 30.01 in 10.0 mi SE 4.6 mph - N/A   Mostly Cloudy
3:15 AM 48.2 °F 46.4 °F 93% 30.01 in 10.0 mi South 3.5 mph - N/A   Mostly Cloudy
3:35 AM 48.2 °F 46.4 °F 93% 30.00 in 10.0 mi SSE 4.6 mph - N/A   Mostly Cloudy
3:55 AM 48.2 °F 46.4 °F 93% 30.00 in 10.0 mi Calm Calm - N/A   Scattered Clouds
4:15 AM 48.2 °F 46.4 °F 93% 29.99 in 10.0 mi SE 3.5 mph - N/A   Mostly Cloudy
4:35 AM 48.2 °F 46.4 °F 93% 29.99 in 10.0 mi SE 3.5 mph - N/A   Mostly Cloudy
4:55 AM 48.2 °F 46.4 °F 93% 29.99 in 10.0 mi Calm Calm - N/A   Mostly Cloudy
5:15 AM 48.2 °F 46.4 °F 93% 29.99 in 10.0 mi SE 4.6 mph - N/A   Mostly Cloudy
5:35 AM 48.2 °F 46.4 °F 93% 29.98 in 10.0 mi South 5.8 mph - N/A   Mostly Cloudy
5:55 AM 50.0 °F 48.2 °F 94% 29.99 in 10.0 mi South 5.8 mph - N/A   Partly Cloudy
6:15 AM 48.2 °F 48.2 °F 100% 29.99 in 10.0 mi SSW 5.8 mph - N/A   Partly Cloudy
6:35 AM 50.0 °F 48.2 °F 94% 29.99 in 10.0 mi South 6.9 mph - N/A   Partly Cloudy
6:55 AM 50.0 °F 48.2 °F 94% 29.99 in 10.0 mi South 4.6 mph - N/A   Scattered Clouds
7:15 AM 50.0 °F 48.2 °F 94% 30.00 in 9.0 mi SSW 3.5 mph - N/A   Mostly Cloudy
7:35 AM 50.0 °F 46.4 °F 87% 30.00 in 10.0 mi SW 3.5 mph - N/A   Overcast
7:55 AM 50.0 °F 48.2 °F 94% 30.01 in 10.0 mi South 3.5 mph - N/A   Overcast
8:15 AM 50.0 °F 48.2 °F 94% 30.01 in 10.0 mi South 4.6 mph - N/A   Overcast
8:35 AM 50.0 °F 48.2 °F 94% 30.01 in 10.0 mi SSE 5.8 mph - N/A   Overcast
8:55 AM 50.0 °F 48.2 °F 94% 30.01 in 10.0 mi South 4.6 mph - N/A   Overcast
9:15 AM 50.0 °F 46.4 °F 87% 30.02 in 10.0 mi SW 4.6 mph - N/A   Mostly Cloudy
9:35 AM 51.8 °F 48.2 °F 88% 30.02 in 10.0 mi SSW 6.9 mph - N/A   Mostly Cloudy
9:55 AM 51.8 °F 46.4 °F 82% 30.02 in 10.0 mi South 6.9 mph - N/A   Overcast
10:15 AM 53.6 °F 48.2 °F 82% 30.03 in 10.0 mi South 6.9 mph - N/A   Mostly Cloudy
10:35 AM 53.6 °F 48.2 °F 82% 30.03 in 10.0 mi South 9.2 mph - N/A   Scattered Clouds
10:55 AM 53.6 °F 48.2 °F 82% 30.03 in 10.0 mi South 8.1 mph - N/A   Mostly Cloudy
11:15 AM 53.6 °F 48.2 °F 82% 30.03 in 10.0 mi South 6.9 mph - N/A   Mostly Cloudy
11:35 AM 55.4 °F 48.2 °F 77% 30.03 in 10.0 mi SSE 9.2 mph - N/A   Mostly Cloudy
11:55 AM 55.4 °F 50.0 °F 82% 30.03 in 10.0 mi SE 10.4 mph - N/A   Mostly Cloudy
12:15 PM 55.4 °F 50.0 °F 82% 30.02 in 10.0 mi SE 9.2 mph - N/A   Mostly Cloudy
12:35 PM 55.4 °F 50.0 °F 82% 30.02 in 10.0 mi ESE 8.1 mph - N/A   Scattered Clouds
1:15 PM 55.4 °F 48.2 °F 77% 30.02 in 10.0 mi SSE 9.2 mph - N/A   Mostly Cloudy
1:35 PM 50.0 °F 44.6 °F 82% 30.02 in 6.0 mi West 9.2 mph - N/A   Overcast
1:55 PM 50.0 °F 46.4 °F 87% 30.02 in 1.8 mi SW 5.8 mph - 0.12 in   Overcast
2:15 PM 51.8 °F 50.0 °F 94% 30.01 in 7.0 mi Calm Calm - 0.04 in   Overcast
2:35 PM 57.2 °F 50.0 °F 77% 30.01 in 10.0 mi ESE 4.6 mph - 0.04 in   Mostly Cloudy
2:55 PM 55.4 °F 50.0 °F 82% 30.01 in 10.0 mi SE 4.6 mph - 0.04 in   Mostly Cloudy
3:15 PM 53.6 °F 48.2 °F 82% 30.01 in 2.0 mi Calm Calm - 0.11 in   Overcast
3:35 PM 53.6 °F 50.0 °F 88% 30.00 in 10.0 mi SSW 3.5 mph - 0.13 in   Mostly Cloudy
3:55 PM 55.4 °F 48.2 °F 77% 30.00 in 10.0 mi SW 3.5 mph - 0.13 in   Scattered Clouds
4:15 PM 55.4 °F 46.4 °F 72% 29.99 in 10.0 mi Calm Calm - N/A   Partly Cloudy
4:35 PM 57.2 °F 46.4 °F 67% 30.00 in 10.0 mi SW 3.5 mph - N/A   Partly Cloudy
4:55 PM 57.2 °F 44.6 °F 63% 30.00 in 10.0 mi West 5.8 mph - N/A   Clear
5:15 PM 57.2 °F 44.6 °F 63% 30.00 in 10.0 mi West 3.5 mph - N/A   Clear
5:35 PM 57.2 °F 48.2 °F 72% 30.00 in 10.0 mi West 6.9 mph - N/A   Clear
5:55 PM 57.2 °F 50.0 °F 77% 29.99 in 10.0 mi WNW 5.8 mph - N/A   Partly Cloudy
6:15 PM 55.4 °F 50.0 °F 82% 30.00 in 9.0 mi NNW 8.1 mph - N/A   Mostly Cloudy
6:35 PM 53.6 °F 48.2 °F 82% 30.00 in 4.0 mi NW 5.8 mph - 0.02 in   Overcast
6:55 PM 53.6 °F 50.0 °F 88% 30.00 in 5.0 mi North 4.6 mph - 0.03 in   Overcast
7:15 PM 53.6 °F 50.0 °F 88% 30.01 in 10.0 mi Calm Calm - N/A   Mostly Cloudy
7:35 PM 53.6 °F 51.8 °F 94% 30.01 in 10.0 mi Calm Calm - N/A   Partly Cloudy
7:55 PM 51.8 °F 50.0 °F 94% 30.01 in 10.0 mi Calm Calm - N/A   Clear
8:15 PM 50.0 °F 50.0 °F 100% 30.02 in 10.0 mi Calm Calm - N/A   Clear
8:35 PM 50.0 °F 50.0 °F 100% 30.02 in 10.0 mi Calm Calm - N/A   Clear
8:55 PM 50.0 °F 50.0 °F 100% 30.03 in 10.0 mi Calm Calm - N/A   Clear
9:15 PM 50.0 °F 50.0 °F 100% 30.03 in 10.0 mi Calm Calm - N/A   Clear
9:35 PM 50.0 °F 50.0 °F 100% 30.04 in 10.0 mi Calm Calm - N/A   Clear
9:55 PM 50.0 °F 48.2 °F 94% 30.04 in 10.0 mi Calm Calm - N/A   Clear
10:15 PM 48.2 °F 48.2 °F 100% 30.05 in 10.0 mi West 3.5 mph - N/A   Clear
10:35 PM 48.2 °F 48.2 °F 100% 30.05 in 10.0 mi Calm Calm - N/A   Clear
10:55 PM 48.2 °F 48.2 °F 100% 30.05 in 10.0 mi Calm Calm - N/A   Clear
11:15 PM 46.4 °F 46.4 °F 100% 30.05 in 10.0 mi Calm Calm - N/A   Clear
11:35 PM 48.2 °F 48.2 °F 100% 30.05 in 10.0 mi West 3.5 mph - N/A   Clear
11:55 PM 46.4 °F 46.4 °F 100% 30.05 in 10.0 mi Calm Calm - N/A   Clear